Terminal Aerodrome Forecast
Issued by NWS

Home | Current Version | Previous Version | Graphics & Text | Print | Product List | Glossary On
Versions: 1 2 3 4 5 6 7 8 9 10 11 12 13 14
746
FTUS43 KMPX 230847 AAA
TAFRWF
TAF AMD
KRWF 230847Z 2309/2406 VRB03KT P6SM SKC
     FM231400 17009KT P6SM SKC=

USA.gov is the U.S. government's official web portal to all federal, state and local government web resources and services.